Superior, WI

6:42 AM CDT on September 26, 2016 (GMT -0500)
Bong

Weather History for KSUW - January, 2014

Change the Weather History Date:

Friday, January 31, 2014

  Actual Average Record
Temperature  
Mean Temperature -4 °F -  
Max Temperature 8 °F 23 °F 48 °F (1952)
Min Temperature -15 °F 2 °F -25 °F (1982)
Degree Days  
Heating Degree Days 68    
Moisture  
Dew Point -13 °F    
Average Humidity 65    
Maximum Humidity 79    
Minimum Humidity 48    
Precipitation  
Precipitation 0.00 in - - ()
Sea Level Pressure  
Sea Level Pressure 30.02 in    
Wind  
Wind Speed 8 mph (WSW)    
Max Wind Speed 15 mph    
Max Gust Speed 21 mph    
Visibility 10 miles    
Events      
Averages and records for this station are not official NWS values.
T = Trace of Precipitation, MM = Missing Value Source: NWS Daily Summary

Daily Weather History Graph

Daily Weather History Graph

Search for Another Location

Airport or City:

Trip Planner

Search our weather history database for the weather conditions in past years. The results will help you decide how hot, cold, wet, or windy it might be!

Date:

Astronomy

Jan. 31, 2014 Rise Set
Actual Time 7:33 AM CST 5:10 PM CST
Civil Twilight 7:01 AM CST 5:43 PM CST
Nautical Twilight 6:24 AM CST 6:19 PM CST
Astronomical Twilight 5:49 AM CST 6:54 PM CST
Moon 7:37 AM CST (1/31) 6:43 PM CST (1/31)
Length of Visible Light 10h 41m
Length of Day
9h 37m
New Moon, 1% of the Moon is Illuminated
Jan 31
New Moon
Feb 6
First Quarter
Feb 14
Full
Feb 22
Last Quarter
Mar 1
New

Hourly Weather History & Observations

Time (CST) Temp. Windchill Dew Point Humidity Pressure Visibility Wind Dir Wind Speed Gust Speed Precip Events Conditions
12:15 AM -6.7 °F -23.5 °F -16.4 °F 63% 30.00 in 10.0 mi West 9.2 mph - N/A   Clear
12:35 AM -7.6 °F -20.6 °F -16.8 °F 64% 30.01 in 10.0 mi West 5.8 mph - N/A   Clear
12:55 AM -7.8 °F -22.3 °F -16.8 °F 65% 30.01 in 10.0 mi West 6.9 mph - N/A   Clear
1:15 AM -8.0 °F -22.5 °F -16.8 °F 65% 30.01 in 10.0 mi West 6.9 mph - N/A   Clear
1:35 AM -8.5 °F -21.6 °F -17.3 °F 65% 30.02 in 10.0 mi West 5.8 mph - N/A   Clear
1:55 AM -8.5 °F -21.6 °F -17.0 °F 67% 30.03 in 10.0 mi WSW 5.8 mph - N/A   Clear
2:15 AM -9.2 °F -22.5 °F -17.5 °F 67% 30.04 in 10.0 mi WSW 5.8 mph - N/A   Clear
2:35 AM -9.8 °F -23.1 °F -17.7 °F 68% 30.04 in 10.0 mi SW 5.8 mph - N/A   Clear
2:55 AM -10.5 °F -24.0 °F -18.2 °F 69% 30.03 in 10.0 mi WSW 5.8 mph - N/A   Clear
3:15 AM -11.0 °F -24.6 °F -18.4 °F 70% 30.04 in 10.0 mi SW 5.8 mph - N/A   Clear
3:35 AM -11.2 °F -27.8 °F -18.4 °F 70% 30.04 in 10.0 mi SW 8.1 mph - N/A   Clear
3:55 AM -11.4 °F -28.0 °F -18.4 °F 71% 30.03 in 10.0 mi WSW 8.1 mph - N/A   Clear
4:15 AM -11.6 °F -26.9 °F -18.6 °F 71% 30.04 in 10.0 mi West 6.9 mph - N/A   Clear
4:35 AM -11.6 °F -25.3 °F -18.4 °F 72% 30.04 in 10.0 mi SW 5.8 mph - N/A   Clear
4:55 AM -12.5 °F -28.0 °F -18.9 °F 73% 30.04 in 10.0 mi SW 6.9 mph - N/A   Clear
5:15 AM -12.6 °F -28.2 °F -18.8 °F 74% 30.04 in 10.0 mi WSW 6.9 mph - N/A   Clear
5:35 AM -13.2 °F -28.8 °F -19.3 °F 74% 30.05 in 10.0 mi SW 6.9 mph - N/A   Clear
5:55 AM -13.5 °F -25.7 °F -19.3 °F 75% 30.05 in 10.0 mi WSW 4.6 mph - N/A   Clear
6:15 AM -14.1 °F -26.3 °F -19.5 °F 77% 30.04 in 10.0 mi SW 4.6 mph - N/A   Clear
6:35 AM -15.2 °F -31.2 °F -20.2 °F 78% 30.05 in 10.0 mi SW 6.9 mph - N/A   Clear
6:55 AM -14.4 °F -28.7 °F -19.7 °F 77% 30.05 in 10.0 mi SW 5.8 mph - N/A   Clear
7:15 AM -14.6 °F -33.2 °F -19.5 °F 79% 30.05 in 10.0 mi SW 9.2 mph - N/A   Clear
7:35 AM -13.9 °F -32.4 °F -19.3 °F 77% 30.06 in 10.0 mi SW 9.2 mph - N/A   Clear
7:55 AM -14.1 °F -29.9 °F -19.3 °F 77% 30.07 in 10.0 mi WSW 6.9 mph - N/A   Clear
8:15 AM -13.9 °F -29.7 °F -19.3 °F 77% 30.07 in 10.0 mi SW 6.9 mph - N/A   Clear
8:35 AM -12.8 °F -28.4 °F -18.8 °F 75% 30.07 in 10.0 mi SW 6.9 mph - N/A   Clear
8:55 AM -11.7 °F -28.5 °F -18.4 °F 72% 30.07 in 10.0 mi SW 8.1 mph - N/A   Clear
9:15 AM -10.5 °F -25.6 °F -17.5 °F 71% 30.07 in 10.0 mi WSW 6.9 mph - N/A   Clear
9:35 AM -9.0 °F -25.2 °F -16.8 °F 69% 30.07 in 10.0 mi WSW 8.1 mph - N/A   Clear
9:55 AM -7.6 °F -22.1 °F -15.9 °F 67% 30.07 in 10.0 mi WSW 6.9 mph - N/A   Clear
10:15 AM -6.2 °F -20.4 °F -15.2 °F 65% 30.07 in 10.0 mi SW 6.9 mph - N/A   Clear
10:35 AM -4.9 °F -20.1 °F -14.6 °F 63% 30.07 in 10.0 mi WSW 8.1 mph - N/A   Clear
10:55 AM -3.1 °F -19.1 °F -13.5 °F 61% 30.07 in 10.0 mi WSW 9.2 mph - N/A   Clear
11:15 AM -1.7 °F -17.3 °F -13.0 °F 59% 30.06 in 10.0 mi SW 9.2 mph - N/A   Clear
11:35 AM -0.4 °F -14.7 °F -11.9 °F 58% 30.05 in 10.0 mi SW 8.1 mph - N/A   Clear
11:55 AM 1.0 °F -15.8 °F -11.4 °F 56% 30.05 in 10.0 mi WSW 11.5 mph - N/A   Clear
12:15 PM 2.3 °F -15.0 °F -10.7 °F 55% 30.04 in 10.0 mi SW 12.7 mph 19.6 mph N/A   Clear
12:35 PM 3.2 °F -12.2 °F -10.5 °F 53% 30.04 in 10.0 mi SW 10.4 mph - N/A   Clear
12:55 PM 3.9 °F -14.3 °F -10.3 °F 52% 30.03 in 10.0 mi West 15.0 mph - N/A   Clear
1:15 PM 4.6 °F -13.4 °F -9.6 °F 52% 30.03 in 10.0 mi SW 15.0 mph 20.7 mph N/A   Clear
1:35 PM 5.0 °F -11.6 °F -9.4 °F 52% 30.02 in 10.0 mi WSW 12.7 mph - N/A   Clear
1:55 PM 5.7 °F -11.4 °F -9.4 °F 50% 30.02 in 10.0 mi WSW 13.8 mph 19.6 mph N/A   Clear
2:15 PM 5.9 °F -11.8 °F -9.4 °F 50% 30.01 in 10.0 mi SW 15.0 mph 19.6 mph N/A   Clear
2:35 PM 6.4 °F -10.5 °F -8.9 °F 50% 30.00 in 10.0 mi SW 13.8 mph 19.6 mph N/A   Clear
2:55 PM 7.3 °F -10.0 °F -8.5 °F 48% 30.00 in 10.0 mi WSW 15.0 mph - N/A   Clear
3:15 PM 7.7 °F -8.9 °F -8.0 °F 49% 29.99 in 10.0 mi West 13.8 mph - N/A   Clear
3:35 PM 7.7 °F -6.6 °F -8.0 °F 49% 30.00 in 10.0 mi SW 10.4 mph - N/A   Clear
3:55 PM 8.4 °F -7.3 °F -7.6 °F 48% 29.99 in 10.0 mi WSW 12.7 mph 17.3 mph N/A   Clear
4:15 PM 8.1 °F -9.0 °F -7.2 °F 50% 29.99 in 10.0 mi West 15.0 mph - N/A   Clear
4:35 PM 7.9 °F -5.5 °F -6.9 °F 51% 29.99 in 10.0 mi West 9.2 mph - N/A   Clear
4:55 PM 7.3 °F -5.2 °F -7.2 °F 51% 29.99 in 10.0 mi SW 8.1 mph - N/A   Clear
5:15 PM 5.5 °F -9.3 °F -8.3 °F 53% 29.99 in 10.0 mi SW 10.4 mph - N/A   Clear
5:35 PM 5.0 °F -10.8 °F -8.1 °F 55% 29.99 in 10.0 mi SW 11.5 mph - N/A   Clear
5:55 PM 4.1 °F -12.0 °F -8.5 °F 56% 29.99 in 10.0 mi SW 11.5 mph - N/A   Clear
6:15 PM 3.7 °F -10.6 °F -8.5 °F 57% 29.99 in 10.0 mi SW 9.2 mph - N/A   Clear
6:35 PM 3.0 °F -9.3 °F -8.7 °F 58% 29.99 in 10.0 mi SW 6.9 mph - N/A   Clear
6:55 PM 1.9 °F -9.2 °F -8.9 °F 61% 29.99 in 10.0 mi SW 5.8 mph - N/A   Clear
7:15 PM 0.9 °F -10.5 °F -9.4 °F 62% 29.99 in 10.0 mi SW 5.8 mph - N/A   Clear
7:35 PM 0.5 °F -11.0 °F -9.2 °F 64% 30.00 in 10.0 mi SW 5.8 mph - N/A   Clear
7:55 PM -0.0 °F -14.2 °F -8.9 °F 66% 30.00 in 10.0 mi SW 8.1 mph - N/A   Clear
8:15 PM 0.1 °F -12.8 °F -8.5 °F 67% 30.00 in 10.0 mi SW 6.9 mph - N/A   Clear
8:35 PM -0.4 °F -10.4 °F -8.5 °F 69% 30.00 in 10.0 mi WSW 4.6 mph - N/A   Clear
8:55 PM -0.8 °F -10.8 °F -8.5 °F 70% 30.00 in 10.0 mi WSW 4.6 mph - N/A   Clear
9:15 PM -1.7 °F -11.8 °F -9.0 °F 71% 29.99 in 10.0 mi SW 4.6 mph - N/A   Clear
9:35 PM -2.2 °F -12.5 °F -9.4 °F 71% 29.99 in 10.0 mi SW 4.6 mph - N/A   Clear
9:55 PM -2.6 °F -12.9 °F -9.2 °F 73% 29.99 in 10.0 mi SW 4.6 mph - N/A   Clear
10:15 PM -3.1 °F -13.5 °F -9.2 °F 75% 30.00 in 10.0 mi SW 4.6 mph - N/A   Clear
10:35 PM -2.7 °F -14.8 °F -8.7 °F 76% 30.00 in 10.0 mi WSW 5.8 mph - N/A   Clear
10:55 PM -2.9 °F -15.0 °F -9.0 °F 75% 30.00 in 10.0 mi SW 5.8 mph - N/A   Clear
11:15 PM -3.1 °F -15.2 °F -8.7 °F 77% 30.00 in 10.0 mi WSW 5.8 mph - N/A   Clear
11:35 PM -3.1 °F -13.5 °F -8.7 °F 77% 30.00 in 10.0 mi WSW 4.6 mph - N/A   Clear
11:55 PM -4.7 °F -18.6 °F -9.9 °F 78% 29.99 in 10.0 mi SW 6.9 mph - N/A   Scattered Clouds